1302480033255,18.3365
1302480093255,18.3066
1302480153255,18.3576
1302480213255,18.2885
1302480273256,18.2948
1302480333256,18.3531
1302480393256,18.3079
1302480453256,18.2714
1302480513255,18.3295
1302480573256,18.3027
1302480633256,18.3834
1302480693256,18.2975
1302480753256,18.3491
1302480813256,18.3962
1302480873256,18.3517
1302480933256,18.3791
1302480993256,18.3810
1302481053256,18.3382
1302481113256,18.4530
1302481173255,18.3763
1302481233255,18.3310
1302481293255,18.3159
1302481353255,18.3460
1302481413255,18.3523
1302481473255,18.3654
1302481533255,18.3535
1302481593256,18.3619
1302481653256,18.3606
1302481713256,18.3429
1302481773256,18.3395
1302481833255,18.3142
1302481893255,18.3248
1302481953256,18.2967
1302482013256,18.2930
1302482073256,18.2603
1302482133256,18.2668
1302482193256,18.2972
1302482253256,18.2889
1302482313256,18.2882
1302482373256,18.2795
1302482433256,18.2555
1302482493255,18.2747
1302482553255,18.2687
1302482613255,18.3087
1302482673255,18.3171
1302482733255,18.3378
1302482793255,18.3612
1302482853255,18.3424
1302482913255,18.2837
1302482973256,18.2505
1302483033256,18.2929
1302483093256,18.3252
1302483153256,18.3194
1302483213255,18.3050
1302483273256,18.3062
1302483333256,18.3103
1302483393256,18.2908
1302483453256,18.2666
1302483513256,18.2547
1302483573256,18.2896
1302483633267,18.2813
1302483693267,18.2426
1302483753267,18.3026
1302483813267,18.3006
1302483873267,18.3094
1302483933267,18.3279
1302483993267,18.3097
1302484053267,18.2716
1302484113267,18.2115
1302484173267,18.2557
1302484233267,18.2622
1302484293267,18.3099
1302484353267,18.2575
1302484413267,18.2586
1302484473267,18.2832
1302484533267,18.3222
1302484593267,18.2342
1302484653267,18.2817
1302484713267,18.2678
1302484773267,18.2424
1302484833267,18.2635
1302484893267,18.2323
1302484953267,18.2284
1302485013267,18.2490
1302485073267,18.2416
1302485133267,18.2186
1302485193267,18.2312
1302485253267,18.2416
1302485313267,18.2420
1302485373267,18.2316
1302485433267,18.2103
1302485493267,18.2147
1302485553267,18.2043
1302485613267,18.1585
1302485673267,18.2487
1302485733267,18.2315
1302485793267,18.2402
1302485853267,18.2465
1302485913267,18.2232
1302485973267,18.1979
1302486033267,18.2437
1302486093267,18.2318
1302486153267,18.1631
1302486213267,18.2279
1302486273267,18.1859
1302486333267,18.2441
1302486393267,18.1792
1302486453267,18.2001
1302486513267,18.2054
1302486573267,18.2151
1302486633267,18.2001
1302486693267,18.2744
1302486753267,18.2406
1302486813267,18.2583
1302486873267,18.2669
1302486933267,18.2174
1302486993267,18.2350
1302487053267,18.2288
1302487113267,18.2342
1302487173267,18.1864
1302487233279,18.2813
1302487293279,18.2787
1302487353279,18.3280
1302487413279,18.3179
1302487473279,18.2612
1302487533279,18.2789
1302487593279,18.2802
1302487653279,18.2853
1302487713279,18.3077
1302487773279,18.2493
1302487833279,18.2882
1302487893279,18.2848
1302487953279,18.2558
1302488013279,18.3211
1302488073279,18.2975
1302488133279,18.2907
1302488193279,18.2581
1302488253279,18.2389
1302488313279,18.2978
1302488373279,18.2569
1302488433279,18.2743
1302488493279,18.2642
1302488553279,18.3054
1302488613279,18.3156
1302488673279,18.2915
1302488733279,18.3542
1302488793279,18.3549
1302488853279,18.3950
1302488913279,18.2868
1302488973279,18.3335
1302489033279,18.3358
1302489093279,18.3493
1302489153279,18.3359
1302489213279,18.2403
1302489273279,18.2829
1302489333279,18.2898
1302489393279,18.2663
1302489453279,18.2720
1302489513279,18.2785
1302489573279,18.2265
1302489633279,18.2697
1302489693279,18.2387
1302489753279,18.2344
1302489813279,18.2279
1302489873279,18.2416
1302489933279,18.2174
1302489993279,18.1860
1302490053279,18.2019
1302490113279,18.2349
1302490173279,18.2497
1302490233279,18.2258
1302490293279,18.2324
1302490353279,18.2423
1302490413279,18.2750
1302490473279,18.2239
1302490533279,18.2050
1302490593279,18.1844
1302490653279,18.2411
1302490713279,18.2232
1302490773279,18.2288
1302490833291,18.2501
1302490893291,18.2768
1302490953291,18.2845
1302491013291,18.2654
1302491073291,18.2262
1302491133291,18.2490
1302491193291,18.2900
1302491253291,18.3310
1302491313291,18.3565
1302491373291,18.3553
1302491433291,18.4372
1302491493291,18.3776
1302491553291,18.3228
1302491613291,18.2806
1302491673291,18.2518
1302491733291,18.2542
1302491793291,18.2223
1302491853291,18.2598
1302491913291,18.2453
1302491973291,18.2637
1302492033291,18.2460
1302492093291,18.2064
1302492153291,18.1873
1302492213291,18.1981
1302492273291,18.1907
1302492333291,18.2181
1302492393291,18.2253
1302492453291,18.2389
1302492513291,18.2256
1302492573291,18.1623
1302492633291,18.2663
1302492693291,18.2573
1302492753291,18.2443
1302492813291,18.2457
1302492873291,18.2246
1302492933291,18.1731
1302492993291,18.2048
1302493053291,18.1688
1302493113291,18.2148
1302493173291,18.2009
1302493233291,18.2642
1302493293291,18.2629
1302493353291,18.2204
1302493413291,18.2044
1302493473291,18.1946
1302493533291,18.2352
1302493593291,18.2220
1302493653291,18.1987
1302493713291,18.2196
1302493773291,18.2332
1302493833291,18.2600
1302493893291,18.2875
1302493953291,18.2444
1302494013291,18.1724
1302494073291,18.2129
1302494133291,18.1771
1302494193291,18.1815
1302494253291,18.1993
1302494313291,18.1875
1302494373291,18.1917
1302494433302,18.2014
1302494493302,18.1954
1302494553302,18.2312
1302494613302,18.2137
1302494673302,18.2218
1302494733302,18.2043
1302494793302,18.2072
1302494853302,18.2144
1302494913302,18.2077
1302494973302,18.1723
1302495033302,18.2394
1302495093302,18.2071
1302495153302,18.2399
1302495213302,18.1869
1302495273302,18.1500
1302495333302,18.2315
1302495393302,18.2157
1302495453302,18.2369
1302495513302,18.1866
1302495573302,18.2212
1302495633302,18.1950
1302495693302,18.2485
1302495753302,18.2240
1302495813302,18.2955
1302495873302,18.2931
1302495933302,18.2885
1302495993302,18.2844
1302496053302,18.3083
1302496113302,18.2684
1302496173302,18.3165
1302496233302,18.2728
1302496293302,18.2238
1302496353302,18.2328
1302496413302,18.3260
1302496473302,18.2667
1302496533302,18.2819
1302496593302,18.2670
1302496653302,18.2753
1302496713302,18.2876
1302496773302,18.2745
1302496833302,18.2853
1302496893302,18.3072
1302496953302,18.3044
1302497013302,18.2603
1302497073302,18.2588
1302497133302,18.2831
1302497193302,18.2544
1302497253302,18.2686
1302497313302,18.2345
1302497373302,18.2559
1302497433302,18.2266
1302497493302,18.2227
1302497553302,18.1983
1302497613302,18.2081
1302497673302,18.2409
1302497733302,18.2233
1302497793302,18.2474
1302497853302,18.2067
1302497913302,18.2044
1302497973302,18.2169
1302498033314,18.1855
1302498093314,18.1736
1302498153314,18.3001
1302498213314,18.1919
1302498273314,18.2281
1302498333314,18.3142
1302498393314,18.2878
1302498453314,18.2441
1302498513314,18.2672
1302498573314,18.2934
1302498633314,18.2537
1302498693314,18.2859
1302498753314,18.2271
1302498813314,18.2709
1302498873314,18.2513
1302498933314,18.2846
1302498993314,18.2499
1302499053314,18.2477
1302499113314,18.2071
1302499173314,18.2198
1302499233314,18.2224
1302499293314,18.2857
1302499353314,18.2277
1302499413314,18.2153
1302499473314,18.2153
1302499533314,18.2645
1302499593314,18.2198
1302499653314,18.2617
1302499713314,18.2066
1302499773314,18.2918
1302499833314,18.2072
1302499893314,18.2403
1302499953314,18.2069
1302500013314,18.2356
1302500073314,18.2324
1302500133314,18.2399
1302500193314,18.2292
1302500253314,18.2568
1302500313314,18.2448
1302500373314,18.2927
1302500433314,18.2246
1302500493314,18.2045
1302500553314,18.2323
1302500613314,18.2063
1302500673314,18.1655
1302500733314,18.1951
1302500793314,18.1924
1302500853314,18.2289
1302500913314,18.1904
1302500973314,18.1883
1302501033314,18.2136
1302501093314,18.2302
1302501153314,18.1635
1302501213314,18.1572
1302501273314,18.1970
1302501333314,18.1746
1302501393314,18.2104
1302501453314,18.1826
1302501513314,18.1921
1302501573314,18.1871
1302501633325,18.2063
1302501693325,18.1091
1302501753325,18.1654
1302501813325,18.1819
1302501873325,18.1647
1302501933325,18.1505
1302501993325,18.1468
1302502053325,18.1567
1302502113325,18.1427
1302502173325,18.1655
1302502233325,18.1970
1302502293325,18.1460
1302502353325,18.1984
1302502413325,18.1810
1302502473325,18.1028
1302502533325,18.2045
1302502593325,18.2152
1302502653325,18.2198
1302502713325,18.2284
1302502773325,18.1835
1302502833325,18.2028
1302502893325,18.1725
1302502953325,18.2094
1302503013325,18.1848
1302503073325,18.1937
1302503133325,18.1809
1302503193325,18.2288
1302503253325,18.1916
1302503313325,18.1527
1302503373325,18.2111
1302503433325,18.2072
1302503493325,18.1406
1302503553325,18.1758
1302503613325,18.1900
1302503673325,18.1759
1302503733325,18.1777
1302503793325,18.2261
1302503853325,18.2122
1302503913325,18.1794
1302503973325,18.1493
1302504033325,18.1850
1302504093325,18.2225
1302504153325,18.1765
1302504213325,18.2188
1302504273325,18.1677
1302504333325,18.1431
1302504393325,18.1864
1302504453325,18.2268
1302504513325,18.1968
1302504573325,18.1703
1302504633325,18.1430
1302504693325,18.1579
1302504753325,18.1382
1302504813325,18.1360
1302504873325,18.1839
1302504933325,18.1533
1302504993325,18.1518
1302505053325,18.1543
1302505113325,18.1504
1302505173325,18.1659
1302505233336,18.1856
1302505293336,18.1726
1302505353336,18.1452
1302505413336,18.1913
1302505473336,18.1328
1302505533336,18.1158
1302505593336,18.1176
1302505653336,18.0878
1302505713336,18.0992
1302505773336,18.1420
1302505833336,18.1582
1302505893336,18.1973
1302505953336,18.1261
1302506013336,18.1733
1302506073336,18.1638
1302506133336,18.1224
1302506193336,18.1043
1302506253336,18.1448
1302506313336,18.1615
1302506373336,18.1432
1302506433336,18.1767
1302506493336,18.1168
1302506553336,18.1676
1302506613336,18.1228
1302506673336,18.1636
1302506733336,18.2003
1302506793336,18.1523
1302506853336,18.1949
1302506913336,18.1544
1302506973336,18.2002
1302507033336,18.1567
1302507093336,18.1846
1302507153336,18.1992
1302507213336,18.2042
1302507273336,18.1831
1302507333336,18.1624
1302507393336,18.1753
1302507453336,18.1491
1302507513336,18.1408
1302507573336,18.1732
1302507633336,18.2103
1302507693336,18.1407
1302507753336,18.1312
1302507813336,18.1867
1302507873336,18.1958
1302507933336,18.1339
1302507993336,18.1710
1302508053336,18.1613
1302508113336,18.1609
1302508173336,18.1674
1302508233336,18.1930
1302508293336,18.1824
1302508353336,18.1946
1302508413336,18.1706
1302508473336,18.2484
1302508533336,18.1885
1302508593336,18.2633
1302508653336,18.1988
1302508713336,18.1884
1302508773336,18.2086
1302508833347,18.2148
1302508893347,18.2041
1302508953347,18.1627
1302509013347,18.1971
1302509073347,18.1848
1302509133347,18.2534
1302509193347,18.1719
1302509253347,18.1869
1302509313347,18.1556
1302509373347,18.1481
1302509433347,18.1603
1302509493347,18.1326
1302509553347,18.2006
1302509613347,18.1339
1302509673347,18.2279
1302509733347,18.1614
1302509793347,18.1718
1302509853347,18.1703
1302509913347,18.1876
1302509973347,18.1716
1302510033347,18.1854
1302510093347,18.1993
1302510153347,18.1776
1302510213347,18.1192
1302510273347,18.1629
1302510333347,18.1851
1302510393347,18.1271
1302510453347,18.1631
1302510513347,18.1592
1302510573347,18.1672
1302510633347,18.1263
1302510693347,18.1467
1302510753347,18.1697
1302510813347,18.1950
1302510873347,18.1266
1302510933347,18.1902
1302510993347,18.1934
1302511053347,18.2052
1302511113347,18.1439
1302511173347,18.1255
1302511233347,18.1539
1302511293347,18.1243
1302511353347,18.1540
1302511413347,18.1513
1302511473347,18.1098
1302511533347,18.1004
1302511593347,18.1269
1302511653347,18.0333
1302511713347,18.1318
1302511773347,18.1091
1302511833347,18.1440
1302511893347,18.0996
1302511953347,18.1086
1302512013347,18.1137
1302512073347,18.0920
1302512133347,18.1523
1302512193347,18.1317
1302512253347,18.1419
1302512313347,18.1229
1302512373347,18.0955
1302512433359,18.1242
1302512493359,18.2800
1302512553359,18.1439
1302512613359,18.1043
1302512673359,18.1643
1302512733359,18.2406
1302512793359,18.2031
1302512853359,18.1884
1302512913359,18.1799
1302512973359,18.2020
1302513033359,18.2229
1302513093359,18.1711
1302513153359,18.2011
1302513213359,18.1860
1302513273359,18.2015
1302513333359,18.1948
1302513393359,18.1808
1302513453359,18.1593
1302513513358,18.1375
1302513573359,18.1506
1302513633359,18.1393
1302513693359,18.1630
1302513753359,18.2266
1302513813359,18.2025
1302513873359,18.1902
1302513933359,18.1760
1302513993359,18.1495
1302514053359,18.1477
1302514113359,18.1709
1302514173359,18.1661
1302514233359,18.1143
1302514293359,18.0922
1302514353359,18.0511
1302514413359,18.1136
1302514473359,18.0683
1302514533359,18.0793
1302514593359,18.0729
1302514653359,18.1011
1302514713359,18.1053
1302514773359,18.0729
1302514833359,18.0906
1302514893359,18.2629
1302514953359,18.0563
1302515013359,18.0533
1302515073359,18.0683
1302515133359,18.0766
1302515193359,18.0912
1302515253359,18.0805
1302515313359,18.1221
1302515373359,18.0747
1302515433359,18.0762
1302515493359,18.0894
1302515553359,18.0161
1302515613359,18.0752
1302515673359,18.0896
1302515733359,18.0534
1302515793359,18.1157
1302515853359,18.1026
1302515913359,18.1521
1302515973359,18.0969
1302516033370,18.1047
1302516093370,18.1250
1302516153370,18.1195
1302516213370,18.1393
1302516273370,18.1290
1302516333370,18.0834
1302516393370,18.1093
1302516453370,18.1268
1302516513370,18.1705
1302516573370,18.1712
1302516633370,18.1199
1302516693370,18.1789
1302516753370,18.1465
1302516813370,18.2148
1302516873370,18.1548
1302516933370,18.2028
1302516993370,18.1792
1302517053370,18.1933
1302517113370,18.1741
1302517173370,18.1664
1302517233370,18.1440
1302517293370,18.0963
1302517353370,18.1253
1302517413370,18.1305
1302517473370,18.1059
1302517533370,18.1288
1302517593370,18.1006
1302517653370,18.1372
1302517713370,18.0498
1302517773370,18.1047
1302517833370,18.0701
1302517893370,18.0574
1302517953370,18.0964
1302518013370,18.0914
1302518073370,18.0745
1302518133370,18.0518
1302518193370,18.0776
1302518253370,18.0992
1302518313370,18.0849
1302518373370,18.0636
1302518433370,18.0805
1302518493370,18.0571
1302518553370,18.0187
1302518613370,18.0617
1302518673370,18.0367
1302518733370,18.0803
1302518793370,18.0564
1302518853370,18.0325
1302518913370,18.0121
1302518973370,18.0566
1302519033370,18.0447
1302519093370,18.0206
1302519153370,18.0680
1302519213370,18.0450
1302519273370,18.0344
1302519333370,18.0722
1302519393370,18.0548
1302519453370,18.0752
1302519513370,18.0765
1302519573370,18.0699
1302519633381,18.0717
1302519693381,18.0592
1302519753381,18.1025
1302519813381,18.0303
1302519873381,18.0341
1302519933381,18.1034
1302519993381,18.0245
1302520053381,18.0429
1302520113381,18.0252
1302520173381,18.0919
1302520233381,18.0271
1302520293381,18.0912
1302520353381,18.0376
1302520413381,18.1072
1302520473381,18.0907
1302520533381,18.0867
1302520593381,18.1014
1302520653381,18.0846
1302520713381,18.1115
1302520773381,18.1193
1302520833381,18.1443
1302520893381,18.1776
1302520953381,18.1007
1302521013381,18.1257
1302521073381,18.1436
1302521133381,18.1392
1302521193381,18.1305
1302521253381,18.1826
1302521313381,18.1241
1302521373381,18.1374
1302521433381,18.2055
1302521493381,18.1807
1302521553381,18.1965
1302521613381,18.1765
1302521673381,18.2151
1302521733381,18.2071
1302521793381,18.1782
1302521853381,18.1913
1302521913381,18.1903
1302521973381,18.1326
1302522033381,18.1900
1302522093381,18.1627
1302522153381,18.1779
1302522213381,18.1526
1302522273381,18.1508
1302522333381,18.0799
1302522393381,18.1687
1302522453381,18.1950
1302522513381,18.1821
1302522573381,18.0906
1302522633381,18.0881
1302522693381,18.1249
1302522753381,18.0964
1302522813381,18.1351
1302522873381,18.0927
1302522933381,18.0967
1302522993381,18.1493
1302523053381,18.1184
1302523113381,18.1240
1302523173381,18.1712
1302523233392,18.1967
1302523293392,18.2143
1302523353392,18.1783
1302523413392,18.2242
1302523473392,18.1846
1302523533392,18.1908
1302523593392,18.1782
1302523653392,18.1586
1302523713392,18.1111
1302523773392,18.1693
1302523833392,18.1245
1302523893392,18.1423
1302523953392,18.1622
1302524013392,18.1097
1302524073392,18.1431
1302524133392,18.1030
1302524193392,18.0690
1302524253392,18.1389
1302524313392,18.1211
1302524373392,18.1005
1302524433392,18.1085
1302524493392,18.1076
1302524553392,18.1655
1302524613392,18.1111
1302524673392,18.1260
1302524733392,18.1187
1302524793392,18.1546
1302524853392,18.1755
1302524913392,18.1299
1302524973392,18.1269
1302525033392,18.1507
1302525093392,18.0894
1302525153392,18.1426
1302525213392,18.2138
1302525273392,18.1417
1302525333392,18.2187
1302525393392,18.1934
1302525453392,18.1808
1302525513392,18.1438
1302525573392,18.1142
1302525633392,18.1085
1302525693392,18.1743
1302525753392,18.1566
1302525813392,18.1573
1302525873392,18.1338
1302525933392,18.1761
1302525993392,18.1669
1302526053392,18.1416
1302526113392,18.1143
1302526173392,18.2015
1302526233392,18.2635
1302526293392,18.1983
1302526353392,18.1263
1302526413392,18.2319
1302526473392,18.2079
1302526533392,18.2171
1302526593392,18.2020
1302526653392,18.1667
1302526713392,18.1988
1302526773392,18.1966
1302526833374,18.1667
1302526893374,18.2668
1302526953374,18.2047
1302527013374,18.2209
1302527073374,18.2185
1302527133374,18.2096
1302527193374,18.2166
1302527253374,18.2210
1302527313374,18.2457
1302527373374,18.2316
1302527433374,18.2320
1302527493374,18.0704
1302528033374,18.1222
1302528093374,18.0909
1302528153374,18.1153
1302528213374,18.1390
1302528273374,18.1213
1302528333374,18.1365
1302528393374,18.1302
1302528453374,18.1233
1302528513374,18.1196
1302528573374,18.1731
1302528633374,18.1650
1302528693374,18.1108
1302528753374,18.1241
1302528813374,18.1553
1302528873374,18.1074
1302528933374,18.0931
1302528993374,18.1498
1302529053374,18.1245
1302529113374,18.1968
1302529173374,18.1597
1302529233374,18.1729
1302529293374,18.1704
1302529353374,18.1359
1302529413374,18.2319
1302529473374,18.2046
1302529533374,18.2057
1302529593374,18.2158
1302529653374,18.1820
1302529713374,18.1842
1302529773374,18.2013
1302529833374,18.2110
1302529893374,18.1833
1302529953374,18.1891
1302530013374,18.2310
1302530073374,18.2389
1302530133374,18.2456
1302530193374,18.2945
1302530253374,18.2370
1302530313374,18.2316
1302530373374,18.1955
1302530433384,18.2316
1302530493384,18.2217
1302530553384,18.2242
1302530613384,18.1863
1302530673384,18.1760
1302530733384,18.2228
1302530793384,18.2445
1302530853384,18.2049
1302530913384,18.2200
1302530973384,18.2291
1302531033384,18.1879
1302531093384,18.2165
1302531153384,18.1833
1302531213384,18.2211
1302531273384,18.2333
1302531333384,18.2074
1302531393384,18.2108
1302531453384,18.2029
1302531513384,18.2266
1302531573384,18.2603
1302531633384,18.2469
1302531693384,18.2670
1302531753384,18.2655
1302531813384,18.2651
1302531873384,18.2126
1302531933384,18.2059
1302531993384,18.2147
1302532053384,18.2013
1302532113384,18.2268
1302532173384,18.1917
1302532233384,18.2198
1302532293384,18.2210
1302532353384,18.1827
1302532413384,18.1907
1302532473384,18.2077
1302532533384,18.2249
1302532593384,18.2349
1302532653384,18.2337
1302532713384,18.1983
1302532773384,18.1972
1302532833384,18.1787
1302532893384,18.2117
1302532953384,18.1904
1302533013384,18.1847
1302533073384,18.2278
1302533133384,18.2609
1302533193384,18.2236
1302533253384,18.2328
1302533313384,18.2399
1302533373384,18.2325
1302533433384,18.2519
1302533493384,18.2412
1302533553384,18.2568
1302533613384,18.2372
1302533673384,18.2409
1302533733384,18.2288
1302533793384,18.2734
1302533853384,18.2325
1302533913384,18.1710
1302533973384,18.2575
1302534033395,18.2929
1302534093395,18.2409
1302534153395,18.2311
1302534213395,18.2945
1302534273395,18.3106
1302534333395,18.2046
1302534393395,18.2728
1302534453395,18.2146
1302534513395,18.2168
1302534573395,18.1793
1302534633395,18.2503
1302534693395,18.2085
1302534753395,18.2482
1302534813395,18.2020
1302534873395,18.2360
1302534933395,18.2189
1302534993395,18.2148
1302535053395,18.2248
1302535113395,18.2105
1302535173395,18.2387
1302535233395,18.2691
1302535293395,18.2917
1302535353395,18.2812
1302535413395,18.2688
1302535473395,18.2740
1302535533395,18.2689
1302535593395,18.2381
1302535653395,18.2537
1302535713395,18.2935
1302535773395,18.2800
1302535833395,18.2866
1302535893395,18.2154
1302535953395,18.2613
1302536013395,18.2344
1302536073395,18.2830
1302536133395,18.3053
1302536193395,18.2939
1302536253395,18.2501
1302536313395,18.2987
1302536373395,18.2235
1302536433395,18.2621
1302536493395,18.2435
1302536553395,18.2964
1302536613395,18.2526
1302536673395,18.2179
1302536733395,18.2345
1302536793395,18.2775
1302536853395,18.2775
1302536913395,18.2582
1302536973395,18.2925
1302537033395,18.2638
1302537093395,18.3092
1302537153395,18.2970
1302537213395,18.2991
1302537273395,18.2900
1302537333395,18.3236
1302537393395,18.5508
1302537453395,18.6156
1302537513395,18.5382
1302537573395,18.5378
1302537633405,18.4432
1302537693405,18.3875
1302537753405,18.3915
1302537813405,18.4034
1302537873405,18.3811
1302537933405,18.4269
1302537993405,18.3831
1302538053405,18.3521
1302538113405,18.3497
1302538173405,18.3177
1302538233405,18.3560
1302538293405,18.3413
1302538353405,18.3145
1302538413405,18.3373
1302538473405,18.3275
1302538533405,18.3140
1302538593405,18.3108
1302538653405,18.2497
1302538713405,18.2185
1302538773405,18.3235
1302538833405,18.3064
1302538893405,18.2753
1302538953405,18.2674
1302539013405,18.2744
1302539073405,18.2546
1302539133405,18.2106
1302539193405,18.2543
1302539253405,18.2852
1302539313405,18.2585
1302539373405,18.2583
1302539433405,18.2716
1302539493405,18.2539
1302539553405,18.2296
1302539613405,18.2617
1302539673405,18.2786
1302539733405,18.2709
1302539793405,18.3017
1302539853405,18.2846
1302539913405,18.3216
1302539973405,18.3313
1302540033405,18.3052
1302540093405,18.2861
1302540153405,18.3166
1302540213405,18.2560
1302540273405,18.2989
1302540333405,18.2967
1302540393405,18.2317
1302540453405,18.2290
1302540513405,18.2912
1302540573405,18.3088
1302540633405,18.3612
1302540693405,18.3617
1302540753405,18.3720
1302540813405,18.4129
1302540873405,18.4000
1302540933405,18.4124
1302540993405,18.3992
1302541053405,18.4327
1302541113405,18.4499
1302541173405,18.4641
1302541233415,18.4104
1302541293415,18.4060
1302541353415,18.3656
1302541413415,18.3401
1302541473415,18.3812
1302541533415,18.2867
1302541593415,18.3269
1302541653415,18.3489
1302541713415,18.3076
1302541773415,18.3302
1302541833415,18.3284
1302541893415,18.3062
1302541953415,18.3120
1302542013415,18.3032
1302542073415,18.3151
1302542133415,18.2915
1302542193415,18.2827
1302542253415,18.2871
1302542313415,18.2704
1302542373415,18.2865
1302542433415,18.2799
1302542493415,18.2549
1302542553415,18.2787
1302542613415,18.2403
1302542673415,18.2475
1302542733415,18.2855
1302542793415,18.2656
1302542853415,18.3384
1302542913415,18.2667
1302542973415,18.3240
1302543033415,18.2853
1302543093415,18.2678
1302543153415,18.2747
1302543213415,18.2961
1302543273415,18.3070
1302543333415,18.2882
1302543393415,18.2736
1302543453415,18.2876
1302543513415,18.2839
1302543573415,18.2992
1302543633415,18.2742
1302543693415,18.2619
1302543753415,18.2964
1302543813415,18.3185
1302543873415,18.3166
1302543933415,18.3504
1302543993415,18.3405
1302544053415,18.3493
1302544113415,18.3111
1302544173415,18.3567
1302544233415,18.3739
1302544293415,18.3146
1302544353415,18.3685
1302544413415,18.3430
1302544473415,18.3659
1302544533415,18.3776
1302544593415,18.3555
1302544653415,18.4300
1302544713415,18.4208
1302544773415,18.3923
1302544833425,18.3455
1302544893425,18.3576
1302544953425,18.3844
1302545013425,18.3872
1302545073425,18.3624
1302545133425,18.3573
1302545193425,18.3874
1302545253425,18.3852
1302545313425,18.3781
1302545373425,18.3461
1302545433425,18.4066
1302545493425,18.3258
1302545553425,18.3416
1302545613425,18.2821
1302545673425,18.3162
1302545733425,18.2850
1302545793425,18.2735
1302545853425,18.2739